Location: Baix
(44.7118°N, 4.7648°E)
Time: 13:07:36
(UTC+00:00)

Vanguard 2 Rocket - Pass Details

Date: 04 December 2020
Orbit: 554 x 3325 km, 32.9° (Epoch: 23 January)

Event Time Altitude Azimuth Distance (km) Brightness Sun altitude
Rises 07:55:04 0° 254° (WSW) 6,927 11.1 6.8°
Reaches altitude 10° 07:59:33 10° 250° (WSW) 6,095 10.8 7.4°
Maximum altitude 08:18:55 57° 179° (S) 3,605 10.5 9.9°
Drops below altitude 10° 08:35:18 10° 107° (ESE) 5,252 12.0 11.9°
Sets 08:38:50 0° 104° (ESE) 5,960 12.0 12.3°
